Theta_e
327 326 326 326 326 326 327 327 327 327 327 326 325 325 322 321 317 314 315 316 318 322 324 321 325 329 329 328 329 329 328 326 323 323 322 322 322 318 315 314 318 318 314 312 311 313 318 319 318 320 322 323 323 322 319 318 316 315 320 323 323 316 314 315 314 317 320 319 318 314 314 315 314 313
327 326 326 326 325 326 326 326 327 327 327 326 326 325 325 324 319 317 315 315 319 320 324 325 323 327 328 329 327 328 328 323 324 323 322 321 321 317 314 313 316 315 311 310 308 310 314 317 317 318 322 324 323 319 318 317 316 319 322 323 322 318 317 317 317 320 320 315 312 312 312 313 313 314
326 326 325 326 325 326 325 326 327 327 327 326 326 326 326 324 323 319 318 314 317 322 321 324 327 327 328 329 328 327 328 326 324 324 322 321 318 317 315 313 313 313 312 309 310 315 318 315 315 318 321 323 321 319 320 321 320 322 322 319 316 318 318 317 317 320 316 313 311 312 311 312 313 314
326 326 325 325 325 326 326 326 327 327 327 327 326 325 324 323 323 321 318 316 315 321 323 323 325 328 327 328 327 327 328 326 321 325 323 321 318 318 318 312 312 312 311 310 314 320 321 318 318 319 321 323 322 321 322 322 321 321 317 313 314 316 315 315 316 319 315 312 311 310 309 310 312 313
326 325 324 324 325 326 325 325 326 326 326 326 325 325 324 323 322 321 319 316 316 317 321 323 324 326 327 326 328 326 326 324 324 323 324 322 320 319 318 315 311 310 310 309 309 312 313 316 325 322 319 322 321 319 318 316 314 317 315 311 311 311 312 313 313 315 314 312 310 309 310 311 311 311
324 324 324 324 325 326 326 325 326 325 325 325 323 323 323 322 321 322 319 317 316 316 318 320 324 325 326 324 327 326 324 322 322 323 323 322 321 319 318 316 314 309 310 308 308 310 311 312 317 315 312 313 313 313 313 312 311 314 309 306 309 313 314 315 312 311 313 313 311 311 311 311 310 309
322 322 321 320 323 325 324 323 323 324 324 324 323 322 322 321 321 322 322 319 316 317 316 320 321 323 325 324 325 326 326 324 323 323 322 322 321 321 319 317 316 308 308 307 308 309 309 311 312 312 311 311 310 310 310 309 309 309 306 304 308 310 311 311 310 309 314 313 312 311 312 309 310 309
321 321 320 320 320 321 321 321 321 321 323 323 322 322 321 322 322 321 321 321 318 317 316 318 321 323 323 324 326 327 324 322 323 323 323 323 321 320 320 319 318 310 307 306 307 309 310 310 310 310 310 310 309 309 310 308 308 306 305 305 307 307 306 306 306 307 309 313 313 313 311 310 310 310
322 321 321 321 321 321 320 319 319 320 321 322 322 321 321 321 321 321 321 320 320 318 317 316 320 322 324 325 325 325 322 321 323 324 323 322 321 320 321 321 322 309 307 307 308 309 309 310 310 310 310 309 309 308 308 307 307 306 305 305 306 306 305 305 306 306 306 307 308 314 314 310 310 311
320 320 320 321 321 321 321 320 320 321 321 322 321 321 321 321 321 321 321 320 319 319 318 317 316 320 321 320 322 324 323 321 320 321 322 323 323 320 319 321 320 315 311 311 311 308 308 309 310 309 309 309 307 308 307 307 307 306 305 305 305 305 304 304 305 305 305 304 304 306 310 309 312 312
319 318 318 317 317 319 321 320 320 320 320 320 320 321 321 321 320 317 318 320 319 318 318 317 318 319 320 320 318 323 324 321 320 319 318 318 321 320 319 318 318 316 314 312 309 311 311 310 311 309 309 309 308 308 306 306 306 306 304 304 304 304 304 304 304 305 304 303 303 303 304 307 312 314
315 315 316 317 315 314 314 315 320 320 319 319 319 319 320 320 319 317 317 317 317 317 317 317 316 317 316 316 318 320 320 318 317 320 319 316 316 317 319 319 316 316 315 314 313 311 311 309 310 308 308 308 307 306 306 307 307 306 304 303 303 303 303 303 303 304 304 304 303 302 302 302 304 312
313 314 314 316 316 315 314 308 306 310 315 319 318 317 318 318 318 317 317 317 317 317 316 315 315 315 315 315 315 315 315 315 316 319 320 318 318 318 316 317 318 317 315 315 313 313 313 312 311 311 311 310 308 308 307 307 307 306 303 302 302 303 303 303 303 303 303 303 303 302 301 301 301 303
309 312 313 315 316 314 312 307 301 299 299 304 312 316 319 318 317 317 316 315 316 316 316 316 315 314 314 314 315 314 315 316 317 318 318 315 317 316 314 313 315 317 317 314 313 313 314 313 310 311 310 309 310 308 309 308 307 305 302 302 302 302 302 302 302 302 302 302 302 302 301 301 301 300
304 308 311 312 314 314 314 311 303 300 299 298 298 298 301 305 313 317 316 316 315 315 315 314 314 314 313 314 315 315 314 315 317 317 317 316 315 313 310 308 310 317 317 315 313 311 314 313 310 310 310 309 308 308 307 304 305 304 302 302 302 302 302 301 301 301 301 301 301 300 300 300 300 299
302 304 306 309 310 311 312 313 311 308 302 300 300 299 299 297 295 296 312 315 314 313 314 313 314 314 314 314 314 313 313 313 313 315 315 315 315 313 311 311 308 313 318 314 312 309 313 314 310 306 304 305 307 308 305 302 303 302 302 302 302 302 301 301 301 301 300 300 300 299 299 299 299 298
301 302 303 304 304 305 309 308 310 311 310 305 303 302 303 302 300 295 294 297 311 314 314 313 312 313 313 312 313 313 312 313 312 311 312 313 315 314 313 311 307 311 318 315 311 307 308 310 307 303 302 302 303 303 302 302 302 302 302 301 301 301 300 300 301 300 300 299 299 299 299 298 297 296
301 301 300 301 300 301 301 300 303 311 311 310 310 309 308 306 304 300 298 298 299 304 312 312 312 312 313 313 312 312 311 313 311 311 312 312 313 312 313 311 311 314 318 314 309 304 304 306 303 300 300 301 300 300 300 301 301 301 301 300 300 300 300 300 299 299 299 298 298 297 297 296 296 295
300 301 301 301 300 300 299 299 299 304 310 311 310 310 309 308 307 304 301 302 303 303 303 304 306 307 310 314 314 314 314 315 313 313 314 314 313 310 310 310 312 313 315 314 311 303 302 304 300 299 300 300 300 300 299 299 300 300 300 299 299 299 299 298 298 298 298 298 297 297 296 295 295 294
299 300 300 299 299 298 298 296 295 298 307 311 311 309 309 309 309 308 303 297 298 300 301 301 300 299 297 296 304 308 314 314 313 313 311 313 312 311 309 308 308 309 309 313 307 301 301 302 299 298 300 300 299 300 299 298 299 299 299 298 298 298 298 298 298 298 297 297 297 296 295 294 294 294
298 299 299 298 298 297 296 295 293 295 301 304 306 307 307 307 306 306 308 302 299 297 297 297 297 296 296 297 296 295 296 305 312 313 311 310 311 309 307 304 305 306 306 305 307 303 299 300 299 298 299 299 298 298 298 298 298 298 298 298 298 298 297 297 297 297 296 296 296 295 295 295 294 295
297 299 299 299 296 295 295 293 293 295 300 301 301 302 304 304 303 304 305 306 305 300 299 299 298 297 298 298 298 297 297 296 302 312 310 310 311 309 308 305 305 303 305 304 306 302 299 300 300 298 298 298 298 298 298 298 298 298 297 297 297 297 297 297 297 296 296 296 296 296 295 295 296 296
296 296 298 297 295 295 293 291 292 293 298 299 299 300 300 300 301 303 303 303 303 303 303 304 304 302 302 304 303 303 298 299 302 304 309 311 311 308 307 304 303 302 302 305 307 301 298 299 300 299 297 294 297 298 298 298 298 298 298 297 297 296 296 296 296 296 296 296 295 295 295 294 295 294
295 295 295 296 292 291 291 291 291 292 293 298 298 298 297 297 298 302 302 302 303 303 302 302 303 303 303 303 303 302 302 302 303 301 302 303 307 307 306 305 306 305 304 306 306 302 300 301 299 301 299 295 292 296 297 297 297 297 297 297 296 296 296 296 295 295 295 295 295 295 294 294 294 293
293 293 294 294 293 291 292 291 291 292 292 294 297 296 296 296 297 299 300 300 300 301 301 301 301 301 301 301 301 301 301 301 301 301 300 301 301 304 304 303 300 298 299 302 302 304 300 301 299 300 298 298 296 295 296 296 297 296 297 296 295 295 295 295 295 294 294 294 294 294 293 294 294 294
292 292 292 293 292 291 291 291 291 292 292 293 296 294 292 292 293 299 299 299 299 299 299 299 299 299 300 300 299 299 299 300 300 300 301 300 301 301 301 301 300 299 298 301 301 305 301 300 300 298 297 296 295 296 294 295 296 296 296 296 296 295 295 295 294 293 293 293 293 293 294 294 295 294
291 292 292 294 293 291 291 292 291 291 292 293 293 291 292 293 293 296 298 297 298 297 297 297 296 296 297 297 298 298 299 299 300 300 300 300 300 300 300 300 300 300 301 303 307 306 304 301 301 298 297 297 295 294 294 293 294 296 295 295 295 295 294 294 293 293 292 292 292 293 293 292 292 293
291 291 291 292 291 291 292 292 292 292 292 292 291 292 292 293 295 298 297 297 297 295 295 296 295 295 296 296 296 297 298 299 300 300 300 300 300 300 299 298 297 298 299 301 303 306 304 301 300 300 299 297 295 294 293 295 295 295 294 294 294 294 294 294 293 293 293 292 291 291 291 291 291 292
291 291 291 291 291 291 291 291 292 292 292 291 291 291 292 296 295 295 296 296 296 296 295 295 295 295 296 296 296 297 298 299 300 299 299 299 300 300 299 298 297 297 297 298 301 303 303 302 301 300 300 299 297 296 296 294 294 294 294 293 293 293 294 294 293 292 292 291 290 291 291 291 291 291
291 290 290 290 291 291 291 292 291 291 291 291 291 292 293 293 293 293 293 294 294 294 294 294 294 295 296 296 296 296 297 297 296 297 297 297 297 298 297 297 296 297 297 297 298 301 303 302 301 300 299 298 298 297 296 295 294 294 294 294 292 291 291 293 293 293 293 292 291 291 291 291 291 291
291 291 291 290 290 290 290 290 291 291 291 291 291 291 291 291 291 292 291 291 291 291 292 292 293 294 295 296 296 295 295 294 295 295 296 296 295 296 296 295 294 294 295 296 296 297 299 300 301 300 296 295 295 295 295 295 293 292 291 292 293 290 289 289 291 292 291 290 290 290 291 292 292 293
290 290 290 289 289 289 289 289 289 289 289 289 289 289 289 290 290 292 293 292 290 290 291 291 292 292 293 293 293 295 295 294 293 293 295 295 295 294 295 292 291 293 293 294 294 295 293 296 296 296 297 296 293 293 293 293 291 290 289 290 289 289 289 289 289 288 290 291 290 289 289 290 291 291
288 288 287 286 287 287 286 286 286 287 287 287 288 288 288 288 288 288 289 288 288 287 289 289 289 289 290 290 291 292 294 293 293 292 294 295 294 294 294 292 291 291 290 291 292 292 293 293 293 294 293 293 295 295 292 288 289 290 289 289 289 287 287 288 289 289 290 290 289 289 288 288 289 289
285 285 285 284 284 285 285 285 285 285 285 286 286 287 288 287 287 287 287 287 287 286 287 288 287 287 287 288 288 289 289 291 291 291 291 294 294 291 290 289 290 290 290 290 291 291 292 293 293 293 293 292 292 293 292 290 288 289 288 288 288 286 286 287 287 288 289 290 290 288 287 287 287 287
284 284 284 284 284 284 284 284 284 285 285 285 285 286 287 286 286 285 286 286 285 285 285 286 285 285 285 285 285 286 286 287 289 290 291 293 293 292 290 289 289 289 290 289 290 291 292 292 292 291 290 290 290 290 292 291 289 287 287 286 286 286 285 286 286 287 289 289 290 287 285 286 286 287
284 283 283 283 283 284 284 284 284 284 284 284 284 285 285 285 285 285 285 286 285 284 285 285 285 284 284 284 284 284 285 286 287 287 287 288 288 289 289 289 289 289 289 289 289 290 291 290 290 288 285 285 285 283 284 291 290 288 286 284 285 284 285 285 285 286 287 287 288 288 286 285 286 287
284 283 283 283 283 283 284 285 285 285 284 284 284 284 284 284 285 286 287 285 284 283 283 283 284 284 283 283 284 284 284 285 285 286 286 287 288 288 287 286 286 287 288 288 289 288 289 289 288 287 285 284 282 281 282 285 288 290 287 285 283 284 284 284 285 284 283 285 285 286 286 286 286 286
283 283 283 283 283 283 284 285 286 286 285 285 285 285 284 284 285 286 287 285 284 283 283 283 283 283 283 283 283 283 283 284 285 286 286 286 286 286 286 286 286 286 287 287 288 288 288 288 287 287 286 283 282 281 281 283 282 285 289 287 284 282 284 285 284 283 282 283 283 282 284 285 285 286
283 283 282 282 282 282 283 284 285 285 285 285 285 285 285 284 284 285 285 284 284 284 284 284 283 282 282 282 282 282 282 283 284 284 285 286 286 286 286 286 286 286 287 286 287 287 288 287 287 287 286 285 283 283 284 282 282 283 286 289 286 283 282 284 282 282 283 283 284 284 283 282 285 287
283 281 281 282 282 282 282 283 283 284 284 284 284 285 284 284 284 284 284 284 284 285 284 284 285 285 284 283 283 282 283 282 282 283 284 285 286 286 285 285 285 286 286 285 285 286 285 286 285 285 285 285 285 285 284 284 282 282 282 286 289 287 284 282 281 282 281 282 283 283 280 280 281 280
281 282 281 281 282 282 281 281 281 283 282 283 284 285 285 285 286 285 284 284 284 284 284 284 284 284 284 284 285 284 284 284 283 283 283 284 285 285 285 285 285 285 284 284 285 284 284 284 284 284 286 285 285 286 285 284 282 281 282 283 287 288 287 287 285 282 280 281 282 281 279 278 277 277
280 280 280 280 280 280 280 280 281 281 281 281 281 282 283 284 284 286 285 285 285 285 284 284 284 284 284 284 284 284 283 284 284 284 283 283 284 284 284 284 284 285 284 284 284 284 284 286 285 285 285 286 285 283 280 281 280 280 282 280 280 284 288 288 287 286 285 282 280 277 276 277 276 277
280 280 280 280 279 279 280 280 279 280 281 281 281 281 282 283 283 283 283 283 284 284 284 284 284 284 284 284 283 282 280 280 280 281 282 283 284 284 284 283 283 284 284 283 282 283 284 285 285 285 284 283 280 281 282 280 279 279 281 282 282 279 281 286 288 288 288 288 286 281 277 277 277 276
280 280 279 279 279 279 278 278 278 279 280 278 279 280 281 281 282 282 282 282 282 282 283 284 285 285 284 284 283 282 282 282 281 282 281 281 282 283 282 281 282 282 281 281 282 281 282 282 282 283 284 281 279 281 280 279 279 279 279 278 278 279 281 278 280 281 282 285 286 287 288 287 285 285
281 281 280 279 277 276 276 277 275 277 278 278 278 278 278 278 279 279 280 281 281 281 282 284 285 285 285 285 284 284 283 284 283 281 281 279 279 280 280 279 280 280 280 280 281 280 279 280 280 279 279 278 278 280 281 281 280 279 278 278 279 277 276 276 279 278 277 278 283 286 286 286 287 286
Wind_Speed
9 9 10 8 8 8 8 8 9 8 7 6 6 8 10 9 8 7 8 8 7 7 9 7 9 11 10 10 8 10 10 11 12 10 10 9 9 14 16 15 14 13 13 14 13 13 14 14 14 14 12 9 12 16 16 14 11 11 11 11 6 11 13 12 12 13 14 13 11 12 11 11 11 10
7 8 7 7 7 7 8 8 7 7 9 8 8 8 8 8 10 7 8 5 6 5 7 7 6 10 11 9 7 7 8 11 14 10 10 9 9 15 17 15 15 14 14 14 13 13 14 14 11 10 12 12 12 14 16 15 13 11 16 12 9 14 13 12 11 13 11 12 11 10 9 9 10 11
7 7 7 7 7 7 8 8 8 8 8 8 8 7 7 8 9 7 5 5 4 5 7 8 6 9 11 10 8 8 10 10 14 10 10 10 12 16 14 16 15 14 14 13 12 11 12 12 13 14 13 12 13 14 15 13 12 15 15 10 13 15 13 12 12 13 14 13 12 11 11 11 11 12
6 6 6 5 5 5 6 7 7 7 6 6 7 7 6 6 6 3 4 6 6 6 7 7 7 9 9 10 9 10 8 10 17 10 10 11 13 10 9 15 15 14 14 13 13 14 12 11 13 14 14 15 18 20 17 16 17 16 11 13 14 15 13 12 12 15 15 13 12 11 12 11 11 11
4 3 2 1 3 3 4 4 4 6 6 6 6 6 6 7 6 6 6 6 6 1 1 4 6 6 7 7 10 9 7 8 10 10 10 10 9 9 8 9 13 15 14 14 14 13 12 12 14 14 14 16 18 15 14 16 15 15 13 15 14 14 13 12 12 14 14 13 13 11 12 12 11 11
6 4 4 3 2 3 4 2 3 2 4 6 6 6 6 6 6 5 6 6 3 4 1 2 3 6 9 9 8 10 9 10 9 10 8 9 11 10 8 7 9 14 14 14 14 13 13 13 13 14 14 15 16 17 16 17 18 15 15 15 14 14 14 12 12 14 14 14 13 12 12 11 11 11
6 6 4 5 5 3 3 1 1 0 3 4 7 8 6 7 7 6 6 5 6 6 3 3 6 7 8 9 9 10 10 9 10 10 8 8 7 7 8 8 7 12 14 15 13 13 14 13 13 14 14 14 16 17 16 15 15 15 16 16 15 15 14 13 14 14 15 15 13 13 12 11 11 11
5 4 3 2 2 3 2 2 2 2 2 3 3 3 3 5 5 4 3 5 4 3 5 6 7 6 7 7 8 8 6 8 8 8 6 6 5 6 5 7 8 10 15 15 15 15 15 14 13 14 15 15 16 16 16 16 14 15 16 16 16 16 15 14 15 15 14 14 14 14 12 12 11 12
7 5 6 5 4 2 3 2 1 3 3 2 3 6 5 3 4 4 6 5 3 4 6 4 3 2 3 4 6 8 8 7 7 6 7 8 9 8 7 6 5 11 15 14 15 15 15 16 15 15 15 15 16 17 16 16 15 15 16 16 16 16 16 15 15 15 14 13 14 14 14 12 13 13
9 9 9 9 7 6 5 4 3 1 3 3 3 1 2 4 4 6 7 6 5 4 4 5 4 3 4 2 3 8 8 8 8 7 6 7 7 7 6 5 5 5 7 7 7 9 11 13 16 14 14 16 16 16 16 16 15 16 16 16 15 16 16 15 15 15 14 13 13 13 12 12 12 13
9 10 10 10 10 8 6 5 5 2 1 2 2 3 3 4 4 4 4 5 6 5 4 3 3 4 3 3 4 3 5 6 5 7 7 6 6 7 8 7 5 5 6 7 11 11 9 9 9 12 14 15 16 16 16 15 16 16 16 16 15 15 14 15 15 14 13 13 13 12 12 12 12 13
11 11 10 10 10 8 9 9 5 2 2 1 1 0 2 3 3 4 3 1 3 3 3 4 3 3 3 3 3 5 6 5 2 6 8 9 8 7 6 6 7 6 7 7 5 7 8 9 11 13 13 14 15 16 15 16 15 16 15 14 14 14 13 13 13 13 13 12 12 12 11 12 11 11
11 10 10 10 10 11 14 15 12 12 9 3 2 1 1 2 3 2 2 3 3 3 3 3 3 5 5 4 6 7 8 11 12 9 7 6 6 7 6 4 5 5 7 6 6 6 7 7 5 5 5 6 10 11 12 11 14 14 14 14 13 13 13 12 12 12 12 12 11 11 11 11 12 11
11 11 10 10 18 14 13 15 15 15 14 13 8 5 3 2 2 1 2 3 3 3 4 4 5 6 7 7 7 8 8 4 4 7 7 7 6 7 6 4 2 5 6 7 7 5 4 6 5 6 6 5 7 6 6 7 8 11 13 13 13 12 12 11 11 11 11 11 11 11 10 10 10 10
12 11 12 11 14 14 12 10 13 13 15 14 13 13 12 8 3 2 3 3 2 3 4 4 5 6 7 8 7 8 6 7 9 9 8 7 7 9 9 6 3 5 6 6 6 5 4 6 7 5 5 6 5 5 6 9 11 12 12 12 12 12 12 12 12 12 11 10 10 10 10 10 9 8
11 11 11 13 11 12 16 12 10 11 14 14 15 16 15 16 14 11 2 2 2 3 4 4 6 5 7 7 6 5 6 7 6 7 8 9 9 8 8 6 6 5 8 6 6 6 4 4 6 5 3 3 3 4 6 10 11 12 12 12 11 11 10 10 10 10 10 10 10 10 10 10 10 10
12 11 10 10 11 10 22 15 11 9 9 11 17 17 17 16 18 16 17 14 6 2 4 4 4 5 2 4 6 3 5 6 8 5 5 6 8 8 8 6 4 7 9 8 6 5 3 3 5 6 4 3 3 2 2 7 10 10 11 11 11 11 11 11 11 10 10 10 10 9 8 7 6 6
13 12 10 10 12 10 12 13 14 10 9 9 11 12 12 13 16 18 18 16 17 13 6 4 3 1 1 5 1 2 5 8 8 8 7 6 6 8 9 4 5 7 10 10 8 4 2 3 6 6 4 4 4 4 2 5 8 10 11 12 12 12 12 12 12 11 11 10 9 9 9 8 8 7
14 13 12 11 11 12 12 12 16 12 9 9 10 10 11 11 11 14 14 12 10 9 10 10 9 8 8 4 4 5 5 7 6 9 10 9 5 4 5 5 5 5 4 7 8 5 4 2 5 5 4 4 5 5 7 6 8 8 9 10 11 12 12 12 12 12 11 10 9 9 9 9 8 8
13 13 13 13 14 15 16 20 23 20 12 9 9 10 9 9 9 10 7 9 12 10 9 9 7 6 7 10 9 6 1 3 6 6 7 7 7 7 5 5 5 5 4 7 7 5 4 2 7 5 4 5 7 6 6 8 10 11 12 12 12 12 13 13 12 12 12 11 10 9 9 9 10 9
14 15 15 13 14 15 16 20 23 21 17 13 12 10 10 9 10 11 9 12 14 15 16 17 19 18 17 17 18 17 15 7 3 7 7 7 7 7 6 3 5 5 5 2 7 7 7 5 5 6 5 5 6 6 6 6 8 11 12 12 13 12 13 13 13 12 13 13 12 12 13 13 12 12
11 15 24 19 13 15 14 20 22 21 17 13 11 12 11 12 12 12 10 9 10 14 14 15 16 18 18 17 17 18 17 16 10 2 5 5 7 8 8 7 5 4 5 3 7 9 6 8 8 9 5 7 5 5 6 6 7 10 10 12 12 12 12 12 13 13 14 15 14 15 15 14 12 8
10 11 13 21 17 13 16 22 21 21 17 13 10 11 13 12 14 11 10 11 11 11 12 12 12 13 15 13 12 13 18 19 14 8 5 3 5 7 6 6 5 2 3 5 7 8 8 9 7 10 6 4 3 3 4 5 5 5 6 7 8 11 12 12 13 14 15 15 15 14 14 13 10 7
10 10 10 13 19 19 20 20 21 20 19 13 13 13 14 13 14 9 9 11 9 9 9 9 9 9 9 11 12 13 14 13 12 11 9 8 6 2 1 6 8 5 4 7 7 8 6 6 8 1 1 10 5 2 4 5 5 4 5 6 7 8 10 11 10 12 13 13 13 13 12 12 9 7
10 10 10 9 15 18 19 19 19 19 19 16 12 12 11 9 8 10 11 12 12 10 10 10 10 10 10 10 10 10 11 11 10 10 11 11 10 8 4 3 4 4 3 1 6 9 7 8 7 4 5 4 8 9 4 5 4 4 4 5 7 4 5 5 6 7 9 11 11 11 10 9 8 7
9 9 8 8 13 17 17 18 18 19 17 18 12 13 14 15 16 12 9 10 10 10 10 10 11 11 11 10 10 10 10 10 10 10 10 11 11 10 9 7 4 3 3 2 1 4 9 8 8 8 7 11 5 6 9 4 3 4 4 4 5 4 5 6 5 5 5 5 5 6 8 10 10 10
8 7 8 9 15 16 17 17 17 18 18 14 13 17 17 16 15 12 9 9 10 10 10 11 11 11 10 11 10 10 10 9 9 9 10 10 10 10 10 10 9 7 5 4 1 2 5 7 5 10 10 11 13 7 7 8 4 3 5 4 4 4 4 4 6 5 4 5 5 10 11 11 10 9
7 8 8 11 17 17 17 17 16 17 17 14 18 17 17 15 13 10 10 9 9 9 11 11 10 10 8 8 9 8 7 7 8 8 8 8 9 9 9 11 12 11 10 8 5 5 6 7 7 7 11 11 11 11 8 4 6 5 6 3 4 4 4 4 5 5 4 5 5 5 6 5 3 7
8 11 15 16 16 17 16 17 15 14 16 19 17 17 17 14 10 10 9 9 9 10 10 9 9 9 9 7 6 6 7 8 9 6 7 8 8 7 8 10 10 11 10 9 8 6 5 8 10 8 8 9 10 7 9 10 8 6 5 6 3 2 3 4 4 5 4 5 5 5 5 5 4 2
16 16 15 17 16 14 14 12 10 9 11 16 17 17 15 9 9 8 8 9 9 8 8 8 8 7 7 7 6 7 8 8 8 7 7 7 8 8 9 10 11 11 11 10 10 8 9 8 7 8 8 6 6 9 9 11 7 5 5 4 5 4 2 3 4 4 5 4 4 4 4 3 3 3
10 12 12 12 14 13 16 15 13 12 12 12 11 10 10 9 9 8 7 7 7 7 7 7 7 6 7 7 9 8 8 8 7 6 5 5 5 6 6 8 8 10 10 11 11 11 9 7 6 7 11 9 9 8 6 6 8 7 4 5 6 5 2 3 3 5 4 5 4 4 4 4 4 3
9 9 11 13 10 11 11 11 10 10 9 9 9 9 9 9 9 10 11 10 8 6 5 6 6 7 7 7 7 8 7 6 7 7 5 4 6 5 4 4 5 6 8 9 10 11 12 9 9 8 6 10 11 7 8 8 6 5 5 5 7 5 3 5 5 4 5 6 6 5 4 4 4 3
8 8 10 10 11 10 10 10 10 10 10 10 9 9 9 9 9 8 7 8 8 6 7 8 7 7 7 8 7 7 8 8 7 7 6 5 5 5 7 7 5 6 7 7 8 9 9 11 12 11 11 10 8 10 10 7 5 4 6 6 6 5 3 2 5 6 5 7 6 6 6 5 4 4
7 8 9 9 9 9 9 9 9 9 9 9 9 9 9 9 9 8 7 7 7 6 6 6 7 7 7 7 7 7 7 7 7 7 5 5 5 5 6 7 5 5 6 6 6 6 8 9 10 10 11 12 12 10 7 8 6 5 5 4 6 5 2 3 4 3 3 6 8 7 6 5 4 3
9 8 9 8 9 9 8 8 8 8 8 8 8 9 8 8 9 8 8 8 7 7 7 7 6 5 6 6 5 6 6 6 7 7 5 6 6 6 6 7 6 5 7 7 5 3 5 7 10 10 10 10 10 10 10 6 6 6 5 5 3 6 3 2 4 4 5 5 7 8 5 5 5 3
8 7 8 8 8 8 9 8 7 8 8 8 8 8 9 9 8 8 8 7 6 7 7 7 7 7 6 6 5 5 6 5 7 7 6 6 6 6 6 6 5 5 6 6 6 5 7 8 9 10 10 6 6 6 4 7 6 2 7 2 2 4 4 4 4 4 6 5 5 8 7 6 5 1
8 7 7 7 7 8 8 8 7 7 7 7 7 7 7 8 8 8 7 5 8 7 6 6 7 6 6 6 6 6 6 6 6 6 6 5 5 5 6 5 6 6 6 6 5 3 6 9 9 10 9 7 7 5 2 3 8 7 4 8 2 3 5 5 6 6 5 4 4 4 7 6 5 4
7 7 7 7 7 7 7 7 7 7 8 7 7 7 8 7 7 8 8 9 9 7 7 7 6 6 6 5 6 6 5 6 6 6 6 5 6 6 6 5 5 6 5 5 5 5 4 5 7 8 9 8 7 5 3 1 2 5 8 4 7 1 2 6 6 6 5 4 5 2 3 6 4 4
6 7 6 6 6 6 6 6 6 7 7 7 7 7 7 7 8 8 8 8 7 8 7 8 7 6 6 6 6 5 6 6 7 5 6 6 5 4 6 5 3 4 4 5 6 5 4 3 4 5 9 9 8 7 6 5 3 0 6 7 6 5 2 6 6 5 6 4 4 5 5 1 3 4
6 5 5 6 6 6 6 6 6 6 6 6 6 6 6 6 6 7 8 8 8 7 7 7 8 7 7 7 6 5 6 6 5 5 5 5 5 5 5 4 3 4 5 5 5 5 3 4 4 3 1 5 5 5 6 5 3 2 4 6 6 4 6 5 5 6 4 3 4 6 4 2 3 3
5 6 5 4 5 5 5 5 5 5 6 6 6 6 6 6 7 7 6 6 7 8 8 8 7 7 6 6 6 5 4 5 5 5 5 5 5 4 3 2 2 4 4 2 1 1 2 4 6 4 3 6 6 6 7 6 6 3 3 2 6 6 3 4 6 5 4 3 5 6 5 3 2 1
3 4 3 3 4 3 4 5 5 6 5 5 5 6 5 5 4 6 6 9 9 9 8 8 7 7 7 6 6 5 4 3 3 4 3 4 5 3 4 3 4 3 4 4 2 1 1 1 0 2 4 6 6 6 5 6 6 3 0 2 2 4 6 5 3 5 9 8 6 5 3 1 1 1
3 4 4 4 3 4 4 4 4 4 5 5 5 5 5 7 7 9 8 8 7 8 8 7 7 7 6 6 6 5 4 4 3 1 2 2 3 4 2 2 2 3 2 2 2 1 3 3 3 3 5 5 3 3 6 4 3 2 1 1 1 4 3 5 7 7 5 3 2 4 3 5 4 1
2 3 3 3 4 4 4 4 3 3 3 3 3 4 5 6 6 6 6 6 6 6 6 7 7 7 8 7 5 5 6 6 4 3 3 3 3 3 3 3 3 3 2 2 4 5 3 4 3 2 4 3 2 5 6 4 3 2 1 0 1 1 1 2 2 4 6 9 11 8 4 3 4 6
0 0 2 3 3 3 4 3 2 2 3 2 4 4 4 4 4 5 5 6 6 6 6 6 7 7 7 7 7 7 6 4 4 4 2 3 3 2 2 2 3 3 2 2 4 3 2 2 2 3 4 3 2 3 4 3 3 3 0 1 2 1 1 1 2 3 3 2 8 12 6 5 7 8
Wind_Direction
256 254 249 238 233 227 218 211 211 212 207 198 196 189 197 205 209 195 202 200 195 195 191 190 202 195 197 200 191 192 186 191 185 187 190 190 193 199 198 196 192 188 190 185 183 186 185 183 180 175 178 167 177 163 160 163 166 171 180 192 183 147 142 148 155 159 164 154 113 101 110 105 96 101
258 250 244 235 232 225 219 218 211 198 206 199 196 200 202 197 208 194 193 197 198 189 195 199 190 191 197 191 173 180 192 187 181 186 188 191 194 193 194 194 191 185 185 183 185 189 192 192 177 187 186 171 175 169 160 166 168 180 186 185 153 144 146 151 157 168 155 116 124 117 118 123 127 130
266 256 248 236 235 224 220 220 217 214 205 199 196 202 197 204 212 194 190 193 225 171 187 205 193 188 195 186 178 179 193 184 184 183 187 192 193 188 192 190 189 187 183 178 181 185 187 186 177 182 186 169 164 177 167 166 172 184 187 159 155 148 152 156 166 163 136 135 132 138 135 139 146 147
280 262 253 244 241 228 223 217 211 207 203 192 196 197 200 204 207 196 209 215 220 195 191 190 193 189 187 184 185 189 184 181 181 181 188 190 187 186 189 189 187 187 183 179 181 186 179 176 172 176 179 171 174 181 177 167 175 184 175 154 159 154 155 160 167 153 145 143 146 147 151 153 158 157
358 360 338 295 244 258 254 222 211 214 206 195 185 191 196 201 192 191 206 219 236 267 193 177 184 179 171 189 192 189 170 166 181 186 188 179 181 185 182 183 187 186 184 181 181 181 172 175 177 178 177 176 183 180 176 172 173 182 160 161 160 154 157 163 163 154 149 149 153 157 160 163 163 164
353 353 346 329 306 266 270 249 230 206 196 189 182 182 184 186 190 185 178 211 232 227 124 168 160 175 175 195 191 192 159 172 177 193 169 184 184 181 175 174 185 186 183 181 179 179 172 176 177 174 181 177 172 176 183 174 177 172 161 162 161 158 162 165 160 155 155 155 159 164 165 166 167 168
339 348 358 352 336 304 271 315 359 296 204 193 193 187 179 184 201 192 193 187 211 220 209 176 190 196 190 195 185 193 193 172 169 178 170 175 171 173 176 175 174 181 180 179 178 178 173 176 173 173 178 178 175 179 181 175 176 164 163 164 165 163 165 164 161 162 165 162 163 167 167 168 171 171
352 335 339 332 335 343 356 8 11 317 309 221 171 150 191 202 182 170 189 202 200 182 175 202 197 193 177 195 186 191 119 146 174 182 159 162 127 156 162 177 173 177 177 178 179 179 176 175 173 173 177 178 174 180 179 179 173 166 164 166 168 166 168 164 166 169 171 168 168 169 170 171 174 177
347 342 337 332 338 344 354 339 338 317 282 262 186 177 180 170 153 165 192 194 174 171 201 189 198 168 209 198 171 152 158 159 171 148 157 138 163 173 178 167 164 160 177 179 180 181 180 175 174 174 176 176 178 183 177 176 173 167 168 170 173 171 170 169 170 174 175 172 171 174 173 176 181 184
17 12 2 352 345 349 345 331 325 267 238 236 271 184 134 163 170 197 188 179 178 174 199 184 177 138 184 123 192 174 167 160 158 150 143 149 151 140 133 176 156 141 162 159 179 186 185 182 172 174 175 175 180 181 179 176 174 171 171 174 177 176 173 172 173 176 177 175 175 177 173 178 187 190
19 16 11 6 359 350 336 329 315 285 266 248 180 145 151 163 180 195 209 189 190 185 186 205 171 162 176 153 177 163 142 133 160 144 141 151 153 154 159 158 145 147 163 185 175 172 183 185 177 174 177 178 178 180 180 177 175 174 174 178 179 178 177 176 176 178 178 178 179 182 176 180 189 195
15 15 12 10 11 3 358 348 326 325 265 286 328 359 147 162 184 196 166 189 196 186 194 183 180 173 159 207 64 101 104 123 164 184 167 170 163 155 153 155 146 153 157 151 162 177 175 177 176 174 180 180 181 178 178 177 177 175 174 178 180 180 180 179 177 177 178 180 184 186 182 184 192 203
9 12 14 12 22 24 22 21 11 359 352 341 285 267 180 213 212 189 178 197 181 213 195 175 150 171 196 178 155 160 167 182 187 174 172 171 153 140 126 111 144 142 148 145 136 152 169 158 145 141 150 172 175 174 171 175 176 173 173 176 179 181 182 180 177 176 178 181 184 186 188 191 196 205
6 6 12 12 19 22 25 25 23 21 15 17 20 355 294 253 204 163 203 200 208 198 206 198 172 178 205 195 188 185 194 171 132 158 162 158 152 137 128 96 141 144 140 148 148 141 171 141 121 154 143 139 158 152 164 172 172 175 174 174 178 181 181 177 173 172 177 181 182 181 184 190 197 204
6 4 9 9 14 19 22 22 22 26 28 33 34 35 36 32 3 222 185 222 195 186 212 207 199 198 200 211 200 200 173 172 174 170 168 158 152 163 160 164 135 161 161 156 140 138 152 135 144 151 139 141 139 147 165 164 169 168 169 171 176 178 176 175 172 173 173 173 172 173 175 179 182 184
15 10 11 13 8 13 16 16 15 14 23 30 35 34 32 25 19 21 8 226 198 176 215 217 210 206 217 213 201 195 165 172 167 179 160 162 173 162 174 171 173 170 168 149 138 128 135 142 133 112 84 93 115 133 156 164 169 168 172 172 171 170 168 166 165 163 162 162 164 167 174 179 181 186
24 17 15 12 12 9 13 11 4 22 18 26 38 38 29 28 28 24 21 19 18 209 213 236 241 234 276 253 230 200 167 159 167 137 157 167 174 174 182 183 145 164 165 140 134 130 123 123 128 104 59 47 50 45 132 174 171 166 162 162 162 161 160 159 157 155 154 157 162 163 159 150 145 142
29 27 23 18 13 1 6 9 2 5 24 33 43 41 38 32 23 24 27 24 22 19 8 358 303 354 152 244 272 104 151 166 177 171 174 160 171 180 193 166 147 153 164 161 137 107 97 94 114 91 60 55 58 48 24 178 173 166 161 158 156 154 152 149 147 144 142 140 138 137 134 132 134 135
32 29 29 27 21 15 13 9 14 4 3 28 40 42 42 41 36 33 24 21 21 21 22 18 9 349 343 340 119 163 190 197 166 175 175 171 158 102 67 76 112 126 150 138 136 132 127 117 88 86 97 85 68 54 43 97 133 136 140 140 143 143 139 131 129 129 128 127 126 127 130 130 134 132
30 28 29 33 32 30 25 17 20 14 7 18 32 41 39 35 36 43 42 32 39 47 51 46 33 9 11 22 16 6 56 110 110 85 76 91 115 137 142 141 157 150 166 151 130 116 128 114 112 106 99 85 79 62 60 63 98 113 117 117 118 117 118 119 122 122 120 117 115 110 114 115 108 108
34 33 27 27 29 31 28 25 28 21 23 25 21 26 34 33 35 26 8 13 26 29 36 41 38 31 29 34 32 24 16 20 83 118 114 148 149 144 153 135 153 169 155 146 130 115 116 136 121 107 69 73 72 67 65 62 78 98 106 110 112 117 116 119 119 117 116 116 117 118 113 105 106 105
33 30 29 29 28 28 21 25 34 29 30 28 21 21 26 32 34 23 9 14 18 21 29 28 36 39 28 25 33 27 22 18 8 98 177 166 151 169 168 166 169 140 162 178 140 114 136 134 125 111 118 80 48 60 70 77 82 83 86 94 102 105 111 115 121 125 122 123 122 119 117 118 113 101
33 26 26 26 24 25 22 26 28 30 37 37 21 24 29 27 29 19 12 17 19 19 21 19 20 29 28 27 32 24 25 24 22 18 13 117 168 176 176 139 112 91 231 194 164 119 154 146 163 138 128 73 61 55 74 78 82 89 98 98 93 106 118 124 127 123 123 123 123 123 121 117 110 103
25 26 22 22 20 24 27 27 28 27 29 41 37 39 35 23 20 357 21 22 24 29 29 26 28 34 29 32 29 27 23 23 25 20 23 18 5 356 166 186 169 171 179 178 172 133 147 152 152 232 69 139 143 121 76 73 74 77 92 95 94 101 105 101 96 106 118 121 120 119 116 115 113 110
27 22 19 17 16 25 28 30 29 30 30 30 36 35 43 35 10 20 29 16 20 31 26 26 25 25 29 35 37 34 30 24 17 21 30 36 31 29 27 354 3 7 359 102 151 127 145 165 152 124 93 60 123 128 112 97 76 78 73 96 108 97 98 98 113 110 108 107 109 106 102 103 107 115
28 21 15 18 16 24 28 29 30 30 32 32 35 24 24 22 26 32 29 26 24 27 26 25 27 21 20 23 27 29 32 25 21 23 28 36 42 41 33 28 17 354 359 350 140 133 125 160 165 136 128 120 101 113 127 101 74 76 79 78 97 115 115 120 102 99 97 103 94 94 89 83 78 79
17 12 16 12 18 25 25 27 29 29 27 32 27 23 22 21 20 24 28 26 30 28 27 29 28 22 17 16 13 16 20 21 23 24 29 34 41 44 38 36 34 22 334 354 37 126 149 141 149 144 139 131 128 126 111 123 120 81 83 74 79 72 68 102 116 115 112 109 101 94 83 79 86 87
22 18 15 18 21 23 23 24 26 27 28 27 24 24 22 21 22 27 24 23 25 29 29 30 27 22 15 14 13 7 4 11 12 20 30 37 39 46 44 36 32 22 10 7 23 86 87 93 90 98 111 115 119 127 121 64 103 125 125 82 75 69 65 83 103 108 103 110 112 112 107 97 98 99
30 27 26 24 25 23 22 23 23 22 20 21 22 22 21 24 24 21 22 19 21 31 26 24 20 21 14 14 6 355 1 16 20 13 15 30 30 33 46 45 39 28 18 6 14 40 88 126 131 124 120 135 131 133 132 138 137 137 125 125 109 95 84 82 111 123 121 114 128 132 139 136 131 124
30 27 25 24 23 25 24 25 22 21 15 18 20 19 20 25 24 20 20 18 25 22 17 21 19 7 2 7 357 14 20 29 15 9 13 23 17 21 28 32 26 28 24 18 19 30 68 62 82 103 93 68 98 124 131 129 121 121 129 120 110 81 63 115 113 120 124 121 106 105 84 98 129 130
23 24 25 24 22 23 24 25 24 24 18 20 18 17 15 18 16 20 28 31 26 14 5 9 6 1 352 359 19 14 18 18 9 7 8 34 26 22 43 54 37 30 22 25 29 29 36 53 48 86 98 82 62 68 74 86 118 121 106 117 127 137 144 86 95 115 111 97 82 59 67 85 80 61
21 25 21 22 20 19 19 16 15 13 16 19 17 14 13 13 13 15 21 31 31 19 13 17 10 9 6 13 1 7 15 18 11 1 12 31 35 16 43 55 39 49 41 29 34 33 44 38 53 43 56 107 103 73 68 73 76 88 93 87 86 66 75 123 108 95 118 116 84 69 59 71 88 67
25 28 28 24 21 21 19 15 13 9 9 9 10 15 12 11 12 15 21 22 15 3 18 19 15 13 10 8 0 6 10 8 4 3 13 24 51 38 57 60 51 62 65 52 50 47 54 62 49 57 62 45 70 107 112 93 59 76 103 101 96 84 51 72 123 129 125 87 87 97 79 54 58 89
42 31 33 25 22 17 19 17 12 8 9 7 4 2 7 13 13 8 10 16 2 2 19 14 22 9 11 12 8 9 6 352 5 3 19 35 36 55 57 69 58 60 76 73 66 77 82 79 73 62 64 66 57 52 77 102 104 91 89 103 105 99 50 92 86 101 108 123 126 97 83 67 41 26
41 30 33 22 18 17 19 20 10 8 11 7 5 360 359 13 9 3 8 1 354 4 8 11 16 14 20 14 15 17 3 4 356 1 3 49 46 54 65 77 68 73 84 81 74 72 90 92 93 73 48 55 64 50 42 52 107 96 85 59 70 108 85 55 102 95 104 96 104 105 89 76 63 5
36 34 36 28 21 14 22 11 10 12 14 9 10 4 11 5 5 6 3 345 354 0 8 6 14 10 9 8 16 20 9 15 26 15 10 20 49 42 52 52 73 68 75 86 94 89 86 74 77 90 97 82 82 75 20 28 56 157 107 82 58 89 88 86 78 79 92 98 106 123 121 132 143 170
42 32 34 30 20 20 20 11 10 11 13 11 10 15 16 8 356 4 356 352 19 11 360 4 15 4 6 12 23 27 22 32 33 26 29 6 39 46 56 40 43 50 51 25 20 30 94 110 111 109 103 95 94 96 50 314 21 31 117 121 80 82 120 109 95 72 34 78 85 96 135 139 152 187
44 34 32 27 23 13 15 12 10 13 11 9 12 10 10 6 3 4 3 20 9 5 5 9 3 5 4 16 37 30 34 32 46 47 40 30 40 24 19 26 37 33 46 32 34 23 4 101 122 126 124 123 124 123 118 15 5 360 1 104 116 128 96 97 86 96 68 33 82 30 71 116 146 160
44 41 33 28 18 19 19 4 9 9 5 8 9 10 4 6 4 7 13 11 6 10 5 11 8 358 6 6 15 37 43 46 49 44 59 62 54 42 22 1 29 28 56 27 14 28 17 66 117 144 140 146 153 166 149 131 94 347 9 41 119 99 51 107 102 91 100 94 71 71 57 53 100 82
32 44 33 27 19 16 16 13 12 1 5 4 1 360 9 5 4 9 9 4 7 10 15 13 6 7 12 9 6 1 39 46 55 52 53 59 58 64 58 19 16 25 41 32 25 340 20 344 337 328 23 104 120 123 125 111 108 48 36 21 14 123 151 123 114 117 81 112 121 88 75 18 65 340
26 36 16 20 27 24 19 14 7 2 8 359 2 1 8 8 14 4 352 359 17 18 13 11 10 11 8 4 6 15 30 32 45 54 61 61 59 61 70 104 67 61 98 83 93 2 327 293 294 288 128 107 107 101 84 86 98 104 89 29 19 52 121 126 139 132 143 153 105 109 107 117 131 51
28 29 7 13 28 13 24 20 3 11 7 2 5 5 357 8 0 342 4 17 17 13 16 13 10 9 8 3 360 7 29 30 50 58 61 87 85 62 36 46 58 49 74 101 120 169 256 258 207 89 107 106 103 99 118 132 135 142 356 316 335 21 57 90 117 144 145 141 120 102 87 41 53 60
25 17 9 355 7 14 16 14 13 10 3 2 10 1 10 13 11 17 13 9 11 11 2 358 7 10 6 5 1 1 18 8 352 7 83 88 106 114 110 87 60 51 51 341 332 15 29 42 72 95 77 64 57 92 135 159 142 130 66 50 24 339 9 36 66 93 109 121 122 155 167 164 131 202
11 19 356 351 9 4 1 8 6 17 17 16 8 20 30 20 13 4 5 3 5 3 346 3 3 5 2 358 356 3 13 352 352 3 34 38 28 25 45 33 49 54 49 66 58 29 26 51 30 42 84 52 49 94 136 123 145 157 162 276 337 61 50 336 7 31 43 48 34 13 352 126 155 175
255 333 352 354 360 357 358 356 15 16 43 40 43 37 22 21 11 355 356 358 357 355 2 4 358 358 358 359 3 360 345 345 6 352 21 45 38 48 71 87 69 46 26 14 89 62 30 38 16 37 67 38 43 116 146 138 153 151 132 90 99 38 12 6 75 71 50 16 4 358 342 159 133 112